Location: Karlsruhe
(49.0131°N, 8.3874°E)
Time: 07:40:47
(UTC+02:00)

ISS - Visible Passes

Search period start: 09 May 2021 00:00
Search period end: 19 May 2021 00:00
Orbit: 418 x 421 km, 51.6° (Epoch: 08 May)

Date Brightness Start Highest point End Pass type
(mag) Time Alt. Az. Time Alt. Az. Time Alt. Az.
09 May -1.8 02:03:26 23° ENE 02:03:26 23° ENE 02:04:54 10° ENE visible
09 May -3.1 03:36:22 20° WNW 03:38:27 53° N 03:41:47 10° ENE visible
09 May -3.4 05:12:08 10° WNW 05:15:31 71° NNE 05:18:54 10° E visible
10 May -3.3 02:50:23 49° NW 02:50:58 59° N 02:54:19 10° ENE visible
10 May -3.2 04:24:41 10° WNW 04:28:03 59° N 04:31:24 10° E visible
11 May -2.8 02:04:21 45° NE 02:04:21 45° NE 02:06:52 10° ENE visible
11 May -3.0 03:37:17 10° WNW 03:40:33 54° N 03:43:52 10° E visible
12 May -1.6 01:18:16 20° ENE 01:18:16 20° ENE 01:19:25 10° ENE visible
12 May -3.0 02:51:12 23° WNW 02:53:02 52° N 02:56:22 10° ENE visible
12 May -3.8 04:26:39 10° WNW 04:30:03 89° NE 04:33:26 10° ESE visible
13 May -3.0 02:05:02 47° NW 02:05:31 53° N 02:08:51 10° ENE visible
13 May -3.5 03:39:12 10° WNW 03:42:35 71° NNE 03:45:58 10° E visible
14 May -2.9 01:18:38 48° NE 01:18:38 48° NE 01:21:23 10° ENE visible
14 May -3.2 02:51:45 10° WNW 02:55:06 60° N 02:58:28 10° E visible
14 May -3.5 04:28:38 10° WNW 04:31:55 47° SSW 04:35:10 10° SE visible
14 May -3.1 22:50:47 10° SSW 22:53:52 33° SE 22:55:39 20° E visible
15 May -3.5 00:27:10 10° W 00:30:32 70° NNW 00:33:55 10° ENE visible
15 May -3.0 02:04:16 10° WNW 02:07:36 54° N 02:10:56 10° E visible
15 May -3.9 03:41:10 10° WNW 03:44:31 68° SSW 03:47:53 10° ESE visible
15 May -2.6 22:03:51 10° SSW 22:06:33 23° SE 22:09:18 10° E visible
15 May -3.8 23:39:42 10° WSW 23:43:04 88° NNW 23:46:29 10° ENE visible
16 May -2.9 01:16:46 10° WNW 01:20:05 52° N 01:23:25 10° ENE visible
16 May -3.9 02:53:42 10° WNW 02:57:06 89° NNE 03:00:29 10° ESE visible
16 May -2.5 04:30:54 10° W 04:33:35 22° SW 04:36:17 10° SSE visible
16 May -3.9 22:52:18 10° WSW 22:55:39 70° SSE 22:59:00 10° ENE visible
17 May -3.0 00:29:15 10° W 00:32:35 53° N 00:35:54 10° ENE visible
17 May -3.6 02:06:15 10° WNW 02:09:38 71° NNE 02:13:00 10° E visible
17 May -3.1 03:43:13 10° W 03:46:17 32° SW 03:49:21 10° SSE visible
17 May -3.6 22:04:59 10° SW 22:08:14 49° SSE 22:11:32 10° ENE visible
17 May -3.2 23:41:43 10° W 23:45:04 59° N 23:48:25 10° ENE visible
18 May -3.3 01:18:47 10° WNW 01:22:08 60° N 01:22:56 44° ENE visible
18 May -1.1 02:55:40 10° WNW 02:55:49 11° WNW 02:55:49 11° WNW visible
18 May -3.5 22:54:12 10° W 22:57:34 70° NNW 23:00:57 10° ENE visible
